Погода в Шимановске

Поиск расширенной информации на нашем сайте:

Полезная информация:

Новости сайта



02.01.2020
Опубликован Долгосрочный прогноз погоды по городам России и ближнего зарубежья на январь 2020 года.
Карты: Прогноз на январь и февраль 2020 года, Сравнение прогнозируемой аномалии приземной температуры воздуха на январь 2020 года по разным моделям.




Погода в Шимановске - сегодня

Время (UTC), дата Ветер
(°,м/с) 
Видим.   Явления Облачность Т
(°С)
Тd
(°С)
f(%) Тe
(°С)
Pmin
(гПа)
dP
(гПа)
Po
(мм)
O2
(г/м3)
Тmin Tmax R s Состояние
почвы
21 23.11.20 300 (СЗ) н/о    8/0 верхняя 
[Ci fib]
-8.4 -14.8 60 -11  1016.6  0.9  735  307           
00 24.11.20 290 (З) 20000 м    ясно 
-9.2 -14.8 64 -13  1018.5  1.7  737  308  -10.4      15  равномерный
сухой снег
100% 
03 24.11.20 340 (С) 20000 м    ясно 
-4.3 -14.5 45 -7  1018.4  0.5  737  303           
06 24.11.20 310 (СЗ) 20000 м    ясно 
-3.5 -15.5 39 -6  1019  0.7  738  302           
09 24.11.20 310 (СЗ) н/о    ясно верхняя 
[Ci fib]
-7.2 -17.3 44 -9  1021.4  1.9  739  307           
12 24.11.20 320 (СЗ) н/о    3/0 верхняя 
[Ci fib]
-9.2 -16.7 54 -11  1022.7  0.9  740  310    -3.3       
15 24.11.20 310 (СЗ) н/о    ясно 
-12.8 -17.1 70 -15  1024.3  1.1  741  314           
18 24.11.20 350 (С) н/о    ясно 
-12.3 -18.5 60 -14  1025.2  0.9  741  314           
21 24.11.20 220 (ЮЗ) н/о    ясно 
-20.3 -22.9 80 -21  1027  0.6  742  324           
00 25.11.20 тихо ()   20000 м    3/0 верхняя 
[Ci fib]
-20.2 -23.5 75 -20  1027.9  0.9  742  325  -22.8      15  равномерный
сухой снег
100% 
03 25.11.20 350 (С) 20000 м    ясно 
-8 -18.1 44 -10  1025.8  -0.3  742  309           
06 25.11.20 340 (С) 20000 м    ясно 
-7.9 -20.3 36 -11  1025.1  -0.7  742  309           
09 25.11.20 280 (З) 4{10}  н/о    ясно 
-10.8 -19.2 50 -15  1025.7  0.2  742  313           
12 25.11.20 310 (СЗ) н/о    4/0 верхняя 
[Ci fib]
-10.9 -19.3 50 -14  1025.8  0.1  742  313    -7.2       
15 25.11.20 300 (СЗ) н/о    3/0 верхняя 
[Ci fib]
-12.2 -19.4 55 -16  1025.4  -0.6  741  314           
18 25.11.20 290 (З) н/о    ясно 
-12.7 -19.9 55 -17  1025.2  -0.2  741  315           
21 25.11.20 290 (З) н/о    ясно 
-12.3 -20.6 50 -17  1024.7  -0.5  741  314           
00 26.11.20 290 (З) 20000 м    ясно 
-12.9 -20.1 55 -13  1025.6  0.8  741  315  -13.3      15  равномерный
сухой снег
100% 
03 26.11.20 320 (СЗ) 4{10}  20000 м    ясно 
-8.9 -19 44 -13  1025.6  0.6  742  310           
06 26.11.20 тихо ()   20000 м    ясно 
-8.5 -19 42 -9  1026.3  0.8  743  310           
09 26.11.20 270 (З) н/о    ясно 
-11.6 -18.8 55 -14  1027.8  743  314           
12 26.11.20 280 (З) н/о    ясно 
-12.3 -19.5 55 -14  1028  743  315    -8.2       
15 26.11.20 310 (СЗ) н/о    ясно 
-12.4 -18.6 60 -14  1027.7  -0.3  743  315           
18 26.11.20 300 (СЗ) н/о    ясно 
-12.9 -18.1 65 -16  1027.9  0.2  743  316           
21 26.11.20 310 (СЗ) 2{11}  н/о    ясно 
-13.8 -19 65 -16  1027.4  -0.6  743  317           
Время (UTC), дата Ветер
(°,м/с) 
Видим.   Явления Облачность Т
(°С)
Тd
(°С)
f(%) Тe
(°С)
Pmin
(гПа)
dP
(гПа)
Po
(мм)
O2
(г/м3)
Тmin Tmax R s Состояние
почвы

Для получения пояснительной информации подведите курсор к названию столбца.

ПОГОДА в Шимановске - архив

Всё, что Вы хотите узнать о погоде в Шимановске - удобно и подробно!

Выберите нужную дату (начиная с 1 января 2019* года) и нажмите кнопку "Найти".
Будут отображены архивные сводки погоды по пункту Шимановск, начиная с указанной даты.


Отображать данные в формате CSV (для использования в таблицах Excel)


Внимание! Наш архив погоды предназначен исключительно для личного некоммерческого использования в познавательных целях. Если Вам необходимы официальные справки о состоянии погоды (для производственных, юридических, коммерческих и т.п. целей), обращайтесь в органы Росгидромета.

*Примечание: данная дата относится к архиву по метеостанциям СССР (Россия, СНГ, Балтия).
Архив по метеостанциям Зарубежной Европы и Азии (кроме Китая) хранится 10 дней, по другим регионам земного шара (Китай, Африка, Америка, Австралия, Океания) - 1 день.

Шимановск - район местоположения метеостанции


Название, широта, долгота, высота метеостанции:
Шимановск 52°ш. 127.6°д. 281 м над ур. моря [Российская Федерация]

Дополнительная информация

В oтличие oт бoльшинства пoгoдных сайтoв мы публикуем пoдрoбную метеoинфoрмацию в детальнoм прoфессиoнальнoм фoрмате.

Характеристики температуры и влажнoсти вoздуха измеряются на высoте 2 м в тени вдали oт зданий и деревьев.
Скoрoсть ветра измеряется на высoте 10 м (на урoвне рoста челoвека скoрoсть ветра ниже в 1.5-2 раза). Если метеoстанция нахoдится в гoрoде или в лесу, тo скoрoсть ветра занижена на 2-4 м/с пo сравнению с oткрытым местoм. Скoрoсть ветра над акватoриями крупных рек и oзёр, а также на вершинах хoлмoв на 2-5 м/с выше, чем в oбычных услoвиях.
Атмoсфернoе давление в разных тoчках местнoсти мoжет значительнo oтличаться oт давления на метеoстанции, в зависимoсти oт услoвий рельефа (при пoдъёме на 10 м давление пoнижается примернo на 1 мм рт.ст.).